• In Hungary
  • List of Countries
  • For 7 days
  • Water Temperature
  • Satellite Maps
  • Weather Map
  • News
  • Weather Widgets
  • user-avatar
    Login

    Hourly Weather Krutcy

    Today, 20 April, Friday

    Time Temperature Precipitation Wind Pressure Humidity
    00:00 +5°C° 0 mm 3 mps 740 mmHg 87%
    01:00 +4°C° 0 mm 3 mps 741 mmHg 90%
    02:00 +4°C° 0 mm 2 mps 741 mmHg 93%
    03:00 +4°C° 0 mm 2 mps 741 mmHg 94%
    04:00 +4°C° 0 mm 2 mps 741 mmHg 94%
    05:00 +3°C° 0 mm 3 mps 742 mmHg 95%
    06:00 +4°C° 0 mm 3 mps 742 mmHg 91%
    07:00 +5°C° 0 mm 3 mps 742 mmHg 88%
    08:00 +8°C° 0 mm 3 mps 742 mmHg 83%
    09:00 +8°C° 0.1 mm 3 mps 742 mmHg 80%
    10:00 +9°C° 0.1 mm 3 mps 742 mmHg 78%
    11:00 +9°C° 0.1 mm 3 mps 743 mmHg 75%
    12:00 +10°C° 0.1 mm 3 mps 742 mmHg 72%
    13:00 +11°C° 0.1 mm 3 mps 742 mmHg 68%
    14:00 +13°C° 0 mm 3 mps 741 mmHg 58%
    15:00 +13°C° 0.1 mm 3 mps 741 mmHg 59%
    16:00 +13°C° 0.1 mm 3 mps 741 mmHg 61%
    17:00 +12°C° 0.1 mm 3 mps 740 mmHg 63%
    18:00 +12°C° 0 mm 2 mps 740 mmHg 69%
    19:00 +9°C° 0 mm 2 mps 739 mmHg 75%
    20:00 +8°C° 0 mm 2 mps 739 mmHg 81%
    21:00 +8°C° 0 mm 2 mps 738 mmHg 81%
    22:00 +8°C° 0 mm 3 mps 737 mmHg 80%
    23:00 +8°C° 0 mm 3 mps 736 mmHg 79%

    Tomorrow, 21 April, Saturday

    Time Temperature Precipitation Wind Pressure Humidity
    00:00 +8°C° 0 mm 3 mps 735 mmHg 80%
    01:00 +7°C° 0 mm 4 mps 735 mmHg 81%
    02:00 +8°C° 0 mm 4 mps 734 mmHg 82%
    03:00 +8°C° 0 mm 4 mps 733 mmHg 85%
    04:00 +8°C° 0 mm 4 mps 732 mmHg 89%
    05:00 +8°C° 0 mm 4 mps 732 mmHg 92%
    06:00 +8°C° 0.1 mm 4 mps 731 mmHg 89%
    07:00 +9°C° 0.1 mm 5 mps 730 mmHg 87%
    08:00 +9°C° 0.1 mm 5 mps 729 mmHg 84%
    09:00 +11°C° 0 mm 6 mps 728 mmHg 79%
    10:00 +13°C° 0 mm 6 mps 726 mmHg 73%
    11:00 +15°C° 0 mm 7 mps 725 mmHg 67%
    12:00 +14°C° 0.4 mm 7 mps 725 mmHg 69%
    13:00 +14°C° 0.4 mm 7 mps 724 mmHg 70%
    14:00 +14°C° 0.4 mm 7 mps 723 mmHg 72%
    15:00 +12°C° 0.5 mm 7 mps 723 mmHg 71%
    16:00 +10°C° 0.5 mm 8 mps 723 mmHg 70%
    17:00 +9°C° 0.5 mm 8 mps 723 mmHg 69%
    18:00 +7°C° 0 mm 8 mps 723 mmHg 69%
    19:00 +6°C° 0 mm 9 mps 724 mmHg 70%
    20:00 +5°C° 0 mm 9 mps 725 mmHg 70%
    21:00 +4°C° 0.1 mm 8 mps 725 mmHg 71%
    22:00 +4°C° 0.1 mm 8 mps 725 mmHg 72%
    23:00 +4°C° 0.1 mm 8 mps 725 mmHg 73%

    Day after tomorrow, 22 April, Sunday

    Time Temperature Precipitation Wind Pressure Humidity
    00:00 +3°C° 0 mm 7 mps 726 mmHg 74%
    01:00 +3°C° 0 mm 7 mps 727 mmHg 75%
    02:00 +3°C° 0 mm 6 mps 727 mmHg 76%
    03:00 +2°C° 0 mm 6 mps 728 mmHg 76%
    04:00 +2°C° 0 mm 6 mps 728 mmHg 77%
    05:00 +2°C° 0 mm 6 mps 729 mmHg 78%
    06:00 +2°C° 0 mm 6 mps 729 mmHg 76%
    07:00 +2°C° 0 mm 5 mps 729 mmHg 74%
    08:00 +1°C° 0 mm 5 mps 730 mmHg 73%
    09:00 +2°C° 0 mm 5 mps 730 mmHg 70%
    10:00 +2°C° 0 mm 5 mps 731 mmHg 68%
    11:00 +2°C° 0 mm 5 mps 731 mmHg 65%
    12:00 +2°C° 0 mm 5 mps 732 mmHg 64%
    13:00 +2°C° 0 mm 5 mps 732 mmHg 63%
    14:00 +2°C° 0 mm 5 mps 732 mmHg 62%
    15:00 +2°C° 0 mm 5 mps 733 mmHg 62%
    16:00 +2°C° 0 mm 5 mps 733 mmHg 62%
    17:00 +2°C° 0 mm 5 mps 734 mmHg 62%
    18:00 +1°C° 0 mm 4 mps 734 mmHg 65%
    19:00 0°C° 0 mm 4 mps 735 mmHg 68%
    20:00 0°C° 0 mm 3 mps 735 mmHg 71%
    21:00 0°C° 0 mm 3 mps 736 mmHg 74%
    22:00 -1°C° 0 mm 2 mps 736 mmHg 76%
    23:00 -2°C° 0 mm 2 mps 737 mmHg 79%

    23 April, Monday

    Time Temperature Precipitation Wind Pressure Humidity
    00:00 -2°C° 0 mm 2 mps 737 mmHg 81%
    01:00 -3°C° 0 mm 2 mps 737 mmHg 82%
    02:00 -3°C° 0 mm 2 mps 738 mmHg 84%
    03:00 -3°C° 0 mm 2 mps 738 mmHg 83%
    04:00 -3°C° 0 mm 2 mps 739 mmHg 83%
    05:00 -3°C° 0 mm 2 mps 739 mmHg 82%
    06:00 -2°C° 0 mm 3 mps 739 mmHg 72%
    07:00 -1°C° 0 mm 3 mps 740 mmHg 61%
    08:00 +1°C° 0 mm 3 mps 740 mmHg 51%
    09:00 +2°C° 0 mm 3 mps 740 mmHg 47%
    10:00 +3°C° 0 mm 3 mps 740 mmHg 44%
    11:00 +4°C° 0 mm 3 mps 740 mmHg 40%
    12:00 +5°C° 0 mm 3 mps 740 mmHg 39%
    13:00 +5°C° 0 mm 3 mps 740 mmHg 38%
    14:00 +7°C° 0 mm 2 mps 740 mmHg 36%
    15:00 +7°C° 0 mm 2 mps 740 mmHg 38%
    16:00 +7°C° 0 mm 2 mps 740 mmHg 39%
    17:00 +7°C° 0 mm 2 mps 739 mmHg 41%
    18:00 +6°C° 0 mm 1 mps 739 mmHg 47%
    19:00 +4°C° 0 mm 1 mps 740 mmHg 54%
    20:00 +1°C° 0 mm 0 mps 740 mmHg 60%
    21:00 +2°C° 0 mm 1 mps 740 mmHg 62%
    22:00 +1°C° 0 mm 1 mps 740 mmHg 64%
    23:00 +1°C° 0 mm 1 mps 740 mmHg 66%

    24 April, Tuesday

    Time Temperature Precipitation Wind Pressure Humidity
    00:00 +1°C° 0 mm 1 mps 739 mmHg 67%
    01:00 0°C° 0 mm 1 mps 739 mmHg 69%
    02:00 -2°C° 0 mm 2 mps 739 mmHg 70%
    03:00 -2°C° 0 mm 2 mps 739 mmHg 69%
    04:00 -2°C° 0 mm 2 mps 739 mmHg 68%
    05:00 -1°C° 0 mm 2 mps 739 mmHg 68%
    06:00 +1°C° 0 mm 2 mps 739 mmHg 62%
    07:00 +2°C° 0 mm 3 mps 738 mmHg 57%
    08:00 +4°C° 0 mm 3 mps 738 mmHg 51%
    09:00 +5°C° 0 mm 3 mps 738 mmHg 48%
    10:00 +6°C° 0 mm 4 mps 738 mmHg 46%
    11:00 +7°C° 0 mm 4 mps 737 mmHg 43%
    12:00 +8°C° 0 mm 4 mps 737 mmHg 45%
    13:00 +8°C° 0 mm 4 mps 737 mmHg 47%
    14:00 +8°C° 0 mm 4 mps 736 mmHg 49%
    15:00 +8°C° 0.1 mm 4 mps 736 mmHg 55%
    16:00 +8°C° 0.1 mm 3 mps 735 mmHg 61%
    17:00 +7°C° 0.1 mm 3 mps 735 mmHg 68%
    18:00 +7°C° 0.1 mm 3 mps 735 mmHg 72%
    19:00 +5°C° 0.1 mm 3 mps 735 mmHg 76%
    20:00 +5°C° 0.1 mm 3 mps 734 mmHg 80%
    21:00 +4°C° 0.1 mm 3 mps 734 mmHg 83%
    22:00 +4°C° 0.1 mm 3 mps 734 mmHg 86%
    23:00 +4°C° 0.1 mm 3 mps 733 mmHg 89%

    25 April, Wednesday

    Time Temperature Precipitation Wind Pressure Humidity
    00:00 +4°C° 0.1 mm 3 mps 733 mmHg 91%
    01:00 +4°C° 0.1 mm 3 mps 733 mmHg 93%
    02:00 +3°C° 0.1 mm 3 mps 733 mmHg 95%
    03:00 +4°C° 0.1 mm 3 mps 732 mmHg 95%
    04:00 +4°C° 0.1 mm 3 mps 732 mmHg 95%
    05:00 +4°C° 0.1 mm 3 mps 732 mmHg 95%
    06:00 +5°C° 0 mm 3 mps 732 mmHg 89%
    07:00 +6°C° 0 mm 4 mps 732 mmHg 82%
    08:00 +7°C° 0 mm 4 mps 732 mmHg 76%
    09:00 +7°C° 0.3 mm 4 mps 731 mmHg 77%
    10:00 +7°C° 0.3 mm 4 mps 731 mmHg 78%
    11:00 +7°C° 0.3 mm 5 mps 731 mmHg 78%
    12:00 +7°C° 0.3 mm 5 mps 731 mmHg 77%
    13:00 +8°C° 0.3 mm 5 mps 730 mmHg 76%
    14:00 +8°C° 0.3 mm 5 mps 730 mmHg 74%
    15:00 +9°C° 0.3 mm 5 mps 730 mmHg 71%
    16:00 +9°C° 0.3 mm 5 mps 730 mmHg 68%
    17:00 +9°C° 0.3 mm 5 mps 729 mmHg 65%
    18:00 +7°C° 0.1 mm 4 mps 729 mmHg 72%
    19:00 +7°C° 0.1 mm 3 mps 729 mmHg 79%
    20:00 +6°C° 0.1 mm 2 mps 729 mmHg 86%
    21:00 +5°C° 0.1 mm 2 mps 729 mmHg 88%
    22:00 +5°C° 0.1 mm 2 mps 729 mmHg 90%
    23:00 +5°C° 0.1 mm 2 mps 729 mmHg 92%
    Show more